Location: Pine Mountain Observatory
(43.7910°N, 120.9377°W)
Time: 16:52:10
(UTC-07:00)

Explorer 11/Cluster Stage 4 - Pass Details

Date: 29 May 2019
Orbit: 467 x 1260 km, 28.8° (Epoch: 17 June)

Event Time Altitude Azimuth Distance (km) Brightness Sun altitude
Rises 00:27:53 0° 208° (SSW) 4,058 - -24.2°
Reaches altitude 10° 00:33:30 10° 177° (S) 2,931 - -24.3°
Maximum altitude 00:35:24 11° 161° (SSE) 2,777 - -24.4°
Drops below altitude 10° 00:37:14 10° 146° (SE) 2,789 - -24.4°
Sets 00:42:04 0° 113° (ESE) 3,516 - -24.5°
